EHI
0 0 0 0 0 0 0 0 0 0 0 0 0 0 0 0 1 2 3 3 5 7 7 6 5 4 5 7 9 10 10 12 14 15 15 14 13 12 11 10 9 7 7 7
0 0 0 0 0 0 0 0 0 0 0 0 0 0 0 0 1 2 2 3 4 6 6 6 5 5 6 8 10 11 12 15 16 16 16 15 14 13 12 11 10 8 6 6
0 0 0 0 0 0 0 0 0 0 0 0 0 0 0 0 1 1 1 2 3 4 5 6 6 7 8 10 12 13 14 16 17 16 15 14 13 11 11 11 11 9 7 6
0 0 0 0 0 0 0 0 0 0 0 0 0 0 0 0 0 1 2 3 3 2 3 6 8 9 10 10 12 15 15 14 15 16 15 13 10 9 9 10 10 9 8 7
0 0 0 0 0 0 0 0 0 0 0 0 0 0 0 0 0 1 2 3 3 4 5 7 9 11 9 8 10 13 14 15 16 17 17 14 9 7 8 9 8 7 7 8
0 0 0 0 0 0 0 0 0 0 0 0 0 0 0 0 1 2 2 2 4 8 8 8 9 10 9 8 9 13 16 18 18 18 18 15 10 7 9 9 7 6 7 8
0 0 0 0 0 0 0 0 0 0 0 0 0 0 0 1 1 1 2 3 5 8 9 8 7 9 11 12 13 17 21 22 22 21 20 16 11 10 10 10 8 8 8 9
0 0 0 0 0 0 0 0 0 0 0 0 0 0 0 0 0 0 1 3 5 6 7 6 5 8 10 12 16 21 24 26 26 26 24 21 16 13 12 10 9 8 9 9
0 0 0 0 0 0 0 0 0 0 0 0 0 0 0 0 0 0 0 2 4 5 5 4 4 5 7 8 13 19 23 26 28 27 26 25 22 18 15 13 11 9 10 11
0 0 0 0 0 0 0 0 0 0 0 0 0 0 0 0 0 0 0 1 3 4 4 3 2 3 4 5 10 18 22 25 26 26 25 25 25 23 20 16 13 13 13 12
0 0 0 0 0 0 0 0 0 0 0 0 0 0 0 0 0 0 0 2 4 4 3 1 1 1 2 4 9 15 20 23 24 25 25 25 25 25 24 20 17 16 14 12
0 0 0 0 0 0 0 0 0 0 0 0 0 0 0 0 0 0 0 3 6 5 2 2 2 3 4 6 8 11 17 22 25 27 27 27 26 26 24 22 20 19 15 12
0 0 0 0 0 0 0 0 0 0 0 0 0 0 0 0 0 0 1 3 7 7 5 6 8 8 8 10 11 12 15 20 24 27 29 29 28 25 22 21 21 20 16 14
0 0 0 0 0 0 0 0 0 0 0 0 0 0 0 1 1 1 2 4 8 10 9 10 13 13 12 14 14 14 14 17 21 25 26 26 24 22 20 19 19 18 15 13
0 0 0 0 0 0 0 0 0 0 0 0 0 0 1 2 3 3 4 6 8 10 10 12 14 15 13 13 13 13 13 16 19 21 21 19 18 17 17 16 15 14 12 10
0 0 0 0 0 0 0 0 0 0 0 0 0 0 1 2 4 5 7 8 9 10 10 11 13 15 14 12 12 14 16 20 22 20 17 15 14 13 13 13 12 12 11 9
0 0 0 0 0 0 0 0 0 0 0 0 1 1 2 4 6 7 8 9 10 12 13 13 13 14 13 14 17 19 21 24 25 22 18 16 14 13 11 10 11 12 12 12
0 0 0 0 0 0 0 0 0 1 1 1 2 3 5 8 9 9 9 10 11 13 15 15 15 13 13 15 18 21 22 23 22 22 21 19 17 16 14 12 12 13 13 13
0 0 0 0 0 0 0 0 0 1 1 2 2 4 8 10 9 9 11 13 14 15 17 18 17 16 15 15 16 17 17 18 18 20 22 21 19 17 15 13 12 12 12 11
1 1 0 0 0 0 0 0 0 0 1 1 3 6 9 8 6 9 13 16 18 18 20 21 21 21 19 17 16 15 14 14 16 18 18 17 15 13 12 11 10 10 9 9
0 0 0 0 0 0 0 0 0 0 1 2 5 8 9 7 6 10 15 18 18 21 24 24 24 23 20 16 16 16 14 13 14 16 15 13 11 9 9 9 9 9 9 9
0 0 0 0 0 0 0 0 0 1 2 4 8 11 10 10 10 12 16 18 18 19 21 21 21 20 17 14 14 15 14 13 13 14 14 12 10 8 7 8 9 9 9 10
1 1 0 0 0 0 0 0 0 2 4 6 10 12 12 13 13 14 17 17 17 17 16 15 16 16 14 12 12 12 12 12 12 14 14 12 10 8 7 8 8 8 8 9
1 2 1 0 0 0 0 0 1 4 6 7 10 13 14 16 16 17 17 17 16 15 13 14 16 17 16 14 11 10 10 11 13 14 14 13 11 10 9 8 7 7 8 8
1 1 0 0 0 0 1 1 3 5 7 8 10 13 15 17 19 20 19 16 14 14 13 15 18 19 19 16 12 9 10 11 14 15 14 12 12 12 11 9 6 5 7 8
0 0 0 0 0 1 2 2 4 6 6 8 11 13 14 16 19 22 22 17 13 13 13 15 17 20 21 18 13 11 11 12 14 15 13 12 11 12 12 10 6 4 5 5
Wind_Speed
8 10 8 6 6 6 5 5 3 1 1 3 3 3 3 4 5 5 5 5 5 5 5 6 6 6 5 5 5 5 5 4 3 3 3 3 3 2 2 2 2 3 3 3
9 11 7 5 6 8 8 7 5 3 2 4 4 4 3 4 6 5 5 5 6 6 5 6 6 6 6 6 6 6 5 5 5 3 3 2 2 2 2 2 2 3 3 3
12 4 4 7 8 9 9 8 6 4 4 6 6 6 6 6 6 5 5 5 5 5 6 7 7 7 7 7 7 5 5 5 5 4 3 3 3 2 2 2 2 2 3 3
10 7 7 9 9 10 8 6 6 6 8 5 6 5 4 6 7 7 6 6 6 6 6 6 7 7 8 7 7 6 6 5 5 5 4 4 2 2 2 1 1 2 2 2
8 8 9 9 8 9 6 4 6 8 9 8 7 7 3 6 6 6 7 7 6 5 6 6 6 7 8 8 7 7 7 6 6 5 5 4 3 2 2 1 1 1 1 1
10 7 8 7 5 6 5 5 7 9 9 9 6 8 4 3 4 4 6 6 5 5 5 5 5 6 7 8 7 7 7 7 7 6 5 5 4 3 2 2 1 2 2 1
11 11 8 7 8 9 9 9 7 8 7 6 4 7 3 0 1 3 4 5 5 5 5 5 5 5 6 8 8 7 8 7 7 6 5 5 5 4 4 3 2 2 1 1
10 10 10 9 10 8 9 10 7 7 6 4 6 7 2 1 1 3 4 5 5 5 5 5 5 5 6 7 8 8 8 7 7 7 6 5 5 4 3 3 3 2 1 1
7 7 6 7 8 10 10 10 8 10 9 9 5 4 5 4 4 5 6 6 6 5 5 5 5 5 6 7 7 8 8 8 7 7 6 5 4 3 3 3 3 2 2 1
6 7 6 7 8 8 9 8 8 8 8 9 7 7 4 6 6 6 6 5 5 5 5 4 4 5 5 6 6 7 8 8 7 7 6 5 4 4 3 2 2 2 2 1
8 9 7 9 11 10 9 10 9 8 8 10 8 3 1 3 4 5 5 5 5 5 5 4 4 5 5 6 6 6 6 7 6 6 5 5 4 4 3 3 2 2 2 2
8 8 8 9 6 6 9 10 11 9 8 9 10 4 2 2 4 4 4 5 4 4 4 4 4 5 5 5 6 6 6 6 6 5 5 5 4 3 3 2 2 2 2 3
6 8 10 9 10 9 9 10 11 11 9 9 11 5 4 3 3 3 3 3 4 4 3 3 4 4 4 4 4 5 5 5 5 5 5 4 3 3 2 2 2 2 2 3
7 11 12 11 7 6 9 9 10 12 10 10 11 8 5 4 4 3 3 4 4 4 3 3 3 4 4 4 4 4 4 5 5 4 4 3 2 2 2 1 1 2 2 3
8 11 12 12 10 10 10 11 11 13 13 13 10 9 6 5 4 3 3 4 4 4 4 4 4 4 4 4 4 4 4 4 4 4 3 3 2 2 1 0 0 1 2 2
7 9 11 13 12 12 13 13 13 14 13 13 11 10 5 3 3 3 4 4 5 5 5 5 4 4 5 5 4 4 4 4 4 4 3 3 2 1 1 1 0 0 1 1
7 9 10 12 10 12 14 13 13 13 12 12 12 7 3 3 3 3 3 4 5 4 4 4 4 4 4 5 5 4 4 4 4 4 4 3 2 2 1 1 1 1 1 1
10 10 9 10 10 14 8 5 8 10 9 8 6 4 4 3 2 2 2 3 3 2 3 3 3 4 4 5 5 4 5 4 4 4 3 3 3 2 2 1 1 1 1 1
11 10 9 9 12 12 7 4 5 8 7 4 4 3 3 2 3 3 1 1 1 2 2 3 3 4 3 4 5 4 4 4 4 3 3 3 3 2 2 1 1 1 2 2
8 9 10 9 11 11 5 1 3 7 8 1 2 2 2 3 5 2 3 1 2 3 3 3 3 4 4 4 4 4 4 4 3 3 3 3 2 2 2 1 1 1 2 2
8 9 12 11 11 8 2 0 4 8 2 1 2 2 2 2 4 3 3 3 3 3 4 4 3 3 3 3 3 3 4 3 3 3 3 2 2 2 2 2 2 2 2 2
9 9 10 10 11 7 3 2 3 3 3 1 1 1 1 1 3 3 3 3 3 3 3 3 3 3 2 3 3 3 2 2 3 3 3 3 2 3 2 2 2 3 3 3
7 6 5 5 4 3 1 1 2 3 2 2 1 1 0 1 2 2 2 3 2 2 2 2 2 2 2 2 2 3 2 2 3 3 3 3 3 3 2 3 3 4 4 4
4 4 5 5 4 2 1 1 2 2 3 2 1 0 1 1 2 2 2 2 2 2 2 1 1 1 1 1 2 2 2 2 3 4 4 4 4 3 3 3 3 3 3 3
5 4 6 7 5 3 3 2 2 2 2 1 0 1 1 1 1 2 2 2 1 1 1 0 0 0 0 0 1 1 2 2 3 4 4 4 3 3 3 3 2 3 2 2
6 6 7 5 2 4 3 2 3 2 1 0 1 1 1 1 1 1 1 1 1 1 1 0 0 1 1 1 1 1 1 2 3 3 4 3 3 3 3 3 3 2 3 3
Wind_Direction
201 224 225 225 242 277 279 265 260 267 186 245 241 242 205 192 201 196 188 185 185 188 179 175 182 186 184 181 183 190 196 185 196 199 211 208 213 219 214 215 207 221 231 223
211 227 232 245 242 248 252 251 246 210 196 260 253 249 217 202 206 201 199 196 196 191 185 185 187 190 192 188 192 195 196 192 199 197 217 224 233 233 228 240 204 225 229 231
231 229 206 230 230 238 240 247 256 249 225 232 254 236 204 193 200 198 204 204 198 201 198 193 195 200 202 199 197 200 201 198 201 202 207 208 203 223 211 213 201 219 230 231
237 230 225 232 235 243 240 239 253 248 246 242 249 271 200 194 193 201 205 202 200 194 196 193 198 203 208 203 195 198 197 199 199 204 215 221 223 234 246 242 204 197 209 220
225 219 226 235 239 241 262 247 242 247 252 260 243 265 226 185 210 210 202 203 202 201 196 195 201 203 207 201 195 190 188 193 196 203 206 219 229 236 238 236 206 222 196 220
241 226 235 243 234 227 216 212 220 233 246 251 251 262 255 194 224 211 193 195 198 199 196 194 197 198 200 198 195 188 184 190 194 198 201 210 221 238 253 249 240 224 196 199
219 212 209 218 215 196 215 230 230 229 228 241 215 250 265 295 234 224 198 188 190 193 191 191 192 194 197 197 196 190 184 186 190 193 198 203 212 220 229 243 227 247 238 206
224 211 199 211 229 222 222 244 262 270 268 247 204 244 222 204 223 213 196 184 184 185 190 191 189 189 192 194 195 190 186 188 190 193 196 199 207 221 221 224 246 230 257 284
236 227 186 211 228 236 226 238 261 270 270 271 247 232 211 196 203 200 194 186 187 187 191 192 189 190 188 191 193 190 188 190 193 196 192 194 201 222 235 228 229 231 238 243
250 249 210 195 212 225 249 241 237 250 269 266 254 244 235 193 198 197 197 194 190 190 190 188 186 187 185 182 183 187 190 194 196 196 201 191 196 202 217 238 242 258 254 265
242 245 222 211 221 220 212 223 243 253 259 270 271 264 95 204 203 204 204 200 197 196 193 184 178 172 176 176 173 178 183 188 190 193 191 192 189 189 198 212 220 227 247 245
228 244 242 231 225 254 242 241 237 245 248 259 273 267 125 188 214 209 206 194 190 198 199 182 173 169 173 173 171 169 175 181 182 185 190 187 183 189 200 214 220 219 227 237
220 242 237 224 208 205 227 234 240 252 252 253 261 255 156 180 214 220 219 194 186 191 195 184 174 175 177 175 176 172 176 179 178 180 187 183 182 189 208 222 229 228 227 233
239 240 250 253 254 226 228 232 236 245 251 254 257 268 233 217 214 214 212 205 193 183 187 184 174 176 179 177 176 181 179 171 172 177 182 176 175 185 204 216 239 244 242 243
238 247 248 259 264 254 246 243 238 245 257 265 269 269 268 241 233 225 214 205 200 188 188 184 183 179 174 171 174 179 175 170 169 169 175 172 170 171 169 116 327 288 277 260
238 252 252 250 249 247 249 247 244 246 254 261 267 272 285 259 241 226 214 206 208 206 194 184 178 175 172 171 175 168 166 165 166 166 171 166 171 166 161 176 190 229 275 280
233 238 246 250 245 248 242 240 242 244 245 251 257 268 260 241 235 234 223 217 217 211 192 188 177 171 171 169 166 165 162 160 163 165 165 163 174 172 173 200 186 214 251 280
236 241 243 249 240 244 245 242 246 245 245 254 265 264 255 259 257 233 218 209 209 201 183 183 172 163 168 155 150 153 151 154 158 161 163 164 175 175 175 192 206 223 237 254
229 230 241 243 239 243 236 228 243 248 239 240 257 259 250 222 224 188 106 161 199 174 163 172 164 154 149 142 144 150 146 148 155 159 164 166 175 176 180 191 227 246 258 262
216 223 237 237 245 246 243 233 261 246 229 172 266 249 242 234 244 131 82 94 120 127 134 142 143 139 137 136 150 158 155 158 168 172 171 169 176 189 207 221 252 264 263 266
206 214 229 237 246 246 359 14 215 233 270 19 258 249 240 269 333 57 85 101 104 106 114 117 118 121 122 137 151 159 160 166 178 182 181 177 189 208 216 232 250 259 264 279
228 227 226 236 243 243 65 161 232 340 22 5 314 278 240 54 69 88 102 111 115 112 114 117 114 104 113 138 151 163 172 182 180 180 188 191 209 237 220 221 234 246 253 244
240 261 260 256 265 31 51 347 32 9 346 343 321 338 174 138 129 130 122 120 118 116 110 117 118 113 112 133 165 179 182 201 199 194 193 197 210 228 233 234 231 232 234 247
237 284 263 251 241 278 275 324 343 334 331 334 334 102 146 155 153 155 138 128 132 133 121 115 126 127 118 151 185 193 194 199 208 210 208 210 217 223 220 239 239 239 249 259
266 249 248 248 260 270 249 280 304 321 318 322 25 122 146 146 148 148 145 130 139 155 132 106 83 191 245 249 227 226 210 210 219 222 223 227 225 221 224 226 245 252 252 278
241 244 249 258 266 266 271 296 293 275 261 221 135 125 132 147 155 147 144 143 156 176 199 210 290 299 301 276 261 248 232 226 233 236 235 239 236 229 236 232 215 200 229 197